Time,TemperatureF,DewpointF,PressureIn,WindDirection,WindDirectionDegrees,WindSpeedMPH,WindSpeedGustMPH,Humidity,HourlyPrecipIn,Conditions,Clouds,dailyrainin,SoftwareType,DateUTC
2013-01-17 00:05:00,-7.0,-14.0,30.27,SE,128,0.0,4.0,71,0.00,,,0.00,weatherlink.com 1.10,2013-01-17 06:05:00,
2013-01-17 00:20:00,-7.6,-14.0,30.28,SE,125,0.0,3.0,72,0.00,,,0.00,weatherlink.com 1.10,2013-01-17 06:20:00,
2013-01-17 00:35:00,-8.0,-15.0,30.28,SSE,158,0.0,2.0,72,0.00,,,0.00,weatherlink.com 1.10,2013-01-17 06:35:00,
2013-01-17 00:50:00,-8.4,-15.0,30.28,SE,143,0.0,1.0,73,0.00,,,0.00,weatherlink.com 1.10,2013-01-17 06:50:00,
2013-01-17 01:05:00,-8.8,-15.0,30.29,SSE,158,0.0,1.0,74,0.00,,,0.00,weatherlink.com 1.10,2013-01-17 07:05:00,
2013-01-17 01:20:00,-9.1,-15.0,30.29,SE,143,0.0,1.0,75,0.00,,,0.00,weatherlink.com 1.10,2013-01-17 07:20:00,
2013-01-17 01:36:00,-9.1,-14.0,30.30,South,175,0.0,1.0,77,0.00,,,0.00,weatherlink.com 1.10,2013-01-17 07:36:00,
2013-01-17 01:51:00,-9.6,-15.0,30.30,SSE,153,0.0,0.0,78,0.00,,,0.00,weatherlink.com 1.10,2013-01-17 07:51:00,
2013-01-17 02:06:00,-10.1,-15.0,30.30,SSE,152,0.0,0.0,79,0.00,,,0.00,weatherlink.com 1.10,2013-01-17 08:06:00,
2013-01-17 02:21:00,-10.4,-15.0,30.30,SSE,153,0.0,0.0,80,0.00,,,0.00,weatherlink.com 1.10,2013-01-17 08:21:00,
2013-01-17 02:36:00,-10.6,-15.0,30.31,SE,129,0.0,1.0,82,0.00,,,0.00,weatherlink.com 1.10,2013-01-17 08:36:00,
2013-01-17 02:51:00,-10.6,-15.0,30.31,SE,129,0.0,0.0,81,0.00,,,0.00,weatherlink.com 1.10,2013-01-17 08:51:00,
2013-01-17 03:06:00,-10.6,-15.0,30.32,ESE,120,0.0,0.0,81,0.00,,,0.00,weatherlink.com 1.10,2013-01-17 09:06:00,
2013-01-17 03:21:00,-10.6,-15.0,30.31,SE,128,0.0,1.0,81,0.00,,,0.00,weatherlink.com 1.10,2013-01-17 09:21:00,
2013-01-17 03:36:00,-10.3,-15.0,30.32,ESE,122,0.0,1.0,80,0.00,,,0.00,weatherlink.com 1.10,2013-01-17 09:36:00,
2013-01-17 03:51:00,-10.0,-15.0,30.32,ESE,122,0.0,1.0,80,0.00,,,0.00,weatherlink.com 1.10,2013-01-17 09:51:00,
2013-01-17 04:06:00,-9.5,-14.0,30.32,ESE,119,0.0,1.0,79,0.00,,,0.00,weatherlink.com 1.10,2013-01-17 10:06:00,
2013-01-17 04:21:00,-9.5,-15.0,30.31,SE,138,0.0,1.0,77,0.00,,,0.00,weatherlink.com 1.10,2013-01-17 10:21:00,
2013-01-17 04:36:00,-9.4,-15.0,30.31,ESE,104,0.0,1.0,76,0.00,,,0.00,weatherlink.com 1.10,2013-01-17 10:36:00,
2013-01-17 04:52:00,-9.4,-15.0,30.31,East,100,3.0,3.0,76,0.00,,,0.00,weatherlink.com 1.10,2013-01-17 10:52:00,
2013-01-17 05:07:00,-9.2,-15.0,30.33,ESE,123,2.0,5.0,76,0.00,,,0.00,weatherlink.com 1.10,2013-01-17 11:07:00,
2013-01-17 05:22:00,-9.2,-15.0,30.33,ESE,115,2.0,8.0,75,0.00,,,0.00,weatherlink.com 1.10,2013-01-17 11:22:00,
2013-01-17 05:37:00,-9.1,-15.0,30.33,ESE,111,1.0,4.0,76,0.00,,,0.00,weatherlink.com 1.10,2013-01-17 11:37:00,
2013-01-17 05:52:00,-8.8,-14.0,30.34,SE,131,0.0,3.0,77,0.00,,,0.00,weatherlink.com 1.10,2013-01-17 11:52:00,
2013-01-17 06:07:00,-8.6,-14.0,30.34,ESE,122,1.0,5.0,77,0.00,,,0.00,weatherlink.com 1.10,2013-01-17 12:07:00,
2013-01-17 06:22:00,-8.4,-14.0,30.34,SE,129,2.0,2.0,77,0.00,,,0.00,weatherlink.com 1.10,2013-01-17 12:22:00,
2013-01-17 06:37:00,-8.2,-13.0,30.34,SE,131,2.0,3.0,78,0.00,,,0.00,weatherlink.com 1.10,2013-01-17 12:37:00,
2013-01-17 06:52:00,-8.0,-13.0,30.35,SE,125,0.0,2.0,78,0.00,,,0.00,weatherlink.com 1.10,2013-01-17 12:52:00,
2013-01-17 07:07:00,-7.7,-13.0,30.35,ESE,118,0.0,3.0,78,0.00,,,0.00,weatherlink.com 1.10,2013-01-17 13:07:00,
2013-01-17 07:22:00,-7.4,-13.0,30.36,ESE,115,0.0,4.0,77,0.00,,,0.00,weatherlink.com 1.10,2013-01-17 13:22:00,
2013-01-17 07:37:00,-7.2,-13.0,30.36,SE,138,1.0,4.0,77,0.00,,,0.00,weatherlink.com 1.10,2013-01-17 13:37:00,
2013-01-17 07:52:00,-7.0,-13.0,30.36,ESE,116,0.0,5.0,75,0.00,,,0.00,weatherlink.com 1.10,2013-01-17 13:52:00,
2013-01-17 08:08:00,-6.9,-13.0,30.36,SE,136,0.0,2.0,75,0.00,,,0.00,weatherlink.com 1.10,2013-01-17 14:08:00,
2013-01-17 08:23:00,-6.7,-13.0,30.38,SE,128,0.0,3.0,75,0.00,,,0.00,weatherlink.com 1.10,2013-01-17 14:23:00,
2013-01-17 08:38:00,-6.5,-12.0,30.39,ESE,122,0.0,2.0,75,0.00,,,0.00,weatherlink.com 1.10,2013-01-17 14:38:00,
2013-01-17 08:53:00,-6.1,-12.0,30.40,ESE,115,0.0,4.0,75,0.00,,,0.00,weatherlink.com 1.10,2013-01-17 14:53:00,
2013-01-17 09:08:00,-5.8,-12.0,30.41,SE,146,1.0,3.0,76,0.00,,,0.00,weatherlink.com 1.10,2013-01-17 15:08:00,
2013-01-17 09:23:00,-5.5,-11.0,30.41,ESE,120,2.0,4.0,76,0.00,,,0.00,weatherlink.com 1.10,2013-01-17 15:23:00,
2013-01-17 09:38:00,-5.1,-11.0,30.42,SE,132,1.0,6.0,76,0.00,,,0.00,weatherlink.com 1.10,2013-01-17 15:38:00,
2013-01-17 09:53:00,-4.5,-10.0,30.42,SE,127,0.0,5.0,76,0.00,,,0.00,weatherlink.com 1.10,2013-01-17 15:53:00,
2013-01-17 10:08:00,-3.8,-10.0,30.43,ESE,117,1.0,3.0,76,0.00,,,0.00,weatherlink.com 1.10,2013-01-17 16:08:00,
2013-01-17 10:23:00,-3.1,-9.0,30.43,SE,128,0.0,4.0,75,0.00,,,0.00,weatherlink.com 1.10,2013-01-17 16:23:00,
2013-01-17 10:38:00,-2.7,-9.0,30.43,ESE,118,0.0,3.0,74,0.00,,,0.00,weatherlink.com 1.10,2013-01-17 16:38:00,
2013-01-17 10:53:00,-2.0,-8.0,30.44,ESE,116,2.0,3.0,74,0.00,,,0.00,weatherlink.com 1.10,2013-01-17 16:53:00,
2013-01-17 11:08:00,-1.8,-8.0,30.43,ESE,118,0.0,5.0,74,0.00,,,0.00,weatherlink.com 1.10,2013-01-17 17:08:00,
2013-01-17 11:24:00,-1.1,-8.0,30.43,ESE,120,1.0,3.0,73,0.00,,,0.00,weatherlink.com 1.10,2013-01-17 17:24:00,
2013-01-17 11:39:00,-0.8,-8.0,30.42,SE,128,1.0,2.0,72,0.00,,,0.00,weatherlink.com 1.10,2013-01-17 17:39:00,
2013-01-17 11:54:00,-0.5,-8.0,30.42,ESE,118,3.0,3.0,72,0.00,,,0.00,weatherlink.com 1.10,2013-01-17 17:54:00,
2013-01-17 12:09:00,0.3,-7.0,30.42,SE,128,0.0,4.0,71,0.00,,,0.00,weatherlink.com 1.10,2013-01-17 18:09:00,
2013-01-17 12:24:00,1.2,-6.0,30.42,SE,128,1.0,4.0,70,0.00,,,0.00,weatherlink.com 1.10,2013-01-17 18:24:00,
2013-01-17 12:39:00,2.0,-6.0,30.42,ESE,118,3.0,6.0,68,0.00,,,0.00,weatherlink.com 1.10,2013-01-17 18:39:00,
2013-01-17 12:54:00,2.6,-6.0,30.41,SE,131,2.0,4.0,67,0.00,,,0.00,weatherlink.com 1.10,2013-01-17 18:54:00,
2013-01-17 13:09:00,2.9,-6.0,30.41,SE,136,1.0,4.0,67,0.00,,,0.00,weatherlink.com 1.10,2013-01-17 19:09:00,
2013-01-17 13:24:00,3.1,-6.0,30.40,SE,138,0.0,3.0,67,0.00,,,0.00,weatherlink.com 1.10,2013-01-17 19:24:00,
2013-01-17 13:39:00,3.7,-5.0,30.40,South,169,2.0,5.0,67,0.00,,,0.00,weatherlink.com 1.10,2013-01-17 19:39:00,
2013-01-17 13:54:00,4.1,-5.0,30.40,ESE,108,2.0,5.0,66,0.00,,,0.00,weatherlink.com 1.10,2013-01-17 19:54:00,
2013-01-17 14:09:00,3.8,-6.0,30.40,ESE,120,1.0,5.0,64,0.00,,,0.00,weatherlink.com 1.10,2013-01-17 20:09:00,
2013-01-17 14:24:00,3.8,-6.0,30.40,SSE,154,3.0,9.0,64,0.00,,,0.00,weatherlink.com 1.10,2013-01-17 20:24:00,
2013-01-17 14:40:00,3.7,-6.0,30.41,ESE,111,3.0,6.0,65,0.00,,,0.00,weatherlink.com 1.10,2013-01-17 20:40:00,
2013-01-17 14:55:00,3.6,-6.0,30.41,SE,143,1.0,7.0,64,0.00,,,0.00,weatherlink.com 1.10,2013-01-17 20:55:00,
2013-01-17 15:10:00,3.7,-6.0,30.41,SSE,153,3.0,9.0,65,0.00,,,0.00,weatherlink.com 1.10,2013-01-17 21:10:00,
2013-01-17 15:25:00,3.9,-6.0,30.41,SE,141,2.0,9.0,65,0.00,,,0.00,weatherlink.com 1.10,2013-01-17 21:25:00,
2013-01-17 15:40:00,4.0,-6.0,30.42,SE,125,3.0,6.0,64,0.00,,,0.00,weatherlink.com 1.10,2013-01-17 21:40:00,
2013-01-17 15:55:00,3.7,-6.0,30.42,SE,128,3.0,7.0,64,0.00,,,0.00,weatherlink.com 1.10,2013-01-17 21:55:00,
2013-01-17 16:10:00,3.4,-6.0,30.42,SE,129,2.0,7.0,65,0.00,,,0.00,weatherlink.com 1.10,2013-01-17 22:10:00,
2013-01-17 16:25:00,3.1,-6.0,30.43,SSE,150,1.0,3.0,66,0.00,,,0.00,weatherlink.com 1.10,2013-01-17 22:25:00,
2013-01-17 16:40:00,2.7,-6.0,30.43,SE,124,0.0,3.0,67,0.00,,,0.00,weatherlink.com 1.10,2013-01-17 22:40:00,
2013-01-17 16:55:00,2.3,-6.0,30.43,ESE,118,0.0,3.0,67,0.00,,,0.00,weatherlink.com 1.10,2013-01-17 22:55:00,
2013-01-17 17:10:00,1.8,-7.0,30.43,SE,125,1.0,1.0,68,0.00,,,0.00,weatherlink.com 1.10,2013-01-17 23:10:00,
2013-01-17 17:25:00,1.3,-7.0,30.43,ESE,115,0.0,2.0,69,0.00,,,0.00,weatherlink.com 1.10,2013-01-17 23:25:00,
2013-01-17 17:40:00,1.0,-7.0,30.42,SE,131,0.0,2.0,70,0.00,,,0.00,weatherlink.com 1.10,2013-01-17 23:40:00,
2013-01-17 17:55:00,0.5,-7.0,30.42,SE,131,0.0,1.0,72,0.00,,,0.00,weatherlink.com 1.10,2013-01-17 23:55:00,
2013-01-17 18:26:00,-0.4,-7.0,30.43,ESE,117,1.0,1.0,73,0.00,,,0.00,weatherlink.com 1.10,2013-01-18 00:26:00,
2013-01-17 18:41:00,-0.6,-7.0,30.43,ESE,118,1.0,1.0,74,0.00,,,0.00,weatherlink.com 1.10,2013-01-18 00:41:00,
2013-01-17 18:56:00,-1.2,-7.0,30.43,ESE,118,0.0,1.0,75,0.00,,,0.00,weatherlink.com 1.10,2013-01-18 00:56:00,
2013-01-17 19:11:00,-1.8,-8.0,30.43,ESE,118,0.0,1.0,75,0.00,,,0.00,weatherlink.com 1.10,2013-01-18 01:11:00,
2013-01-17 19:26:00,-4.2,-10.0,30.43,ESE,118,0.0,0.0,76,0.00,,,0.00,weatherlink.com 1.10,2013-01-18 01:26:00,
2013-01-17 19:41:00,-5.9,-11.0,30.43,ESE,118,0.0,1.0,79,0.00,,,0.00,weatherlink.com 1.10,2013-01-18 01:41:00,
2013-01-17 19:56:00,-6.3,-11.0,30.43,ESE,120,0.0,0.0,81,0.00,,,0.00,weatherlink.com 1.10,2013-01-18 01:56:00,
2013-01-17 20:11:00,-6.7,-11.0,30.43,ESE,118,0.0,0.0,83,0.00,,,0.00,weatherlink.com 1.10,2013-01-18 02:11:00,
2013-01-17 20:26:00,-7.0,-11.0,30.42,ESE,120,0.0,0.0,83,0.00,,,0.00,weatherlink.com 1.10,2013-01-18 02:26:00,
2013-01-17 20:56:00,-6.9,-11.0,30.42,ESE,120,0.0,0.0,84,0.00,,,0.00,weatherlink.com 1.10,2013-01-18 02:56:00,
2013-01-17 21:11:00,-6.9,-10.0,30.42,ESE,118,0.0,0.0,85,0.00,,,0.00,weatherlink.com 1.10,2013-01-18 03:11:00,
2013-01-17 21:27:00,-6.7,-10.0,30.42,ESE,120,0.0,0.0,85,0.00,,,0.00,weatherlink.com 1.10,2013-01-18 03:27:00,
2013-01-17 21:42:00,-6.9,-11.0,30.41,ESE,120,0.0,0.0,84,0.00,,,0.00,weatherlink.com 1.10,2013-01-18 03:42:00,
2013-01-17 21:57:00,-7.4,-11.0,30.40,ESE,120,0.0,0.0,84,0.00,,,0.00,weatherlink.com 1.10,2013-01-18 03:57:00,
2013-01-17 22:12:00,-7.3,-11.0,30.39,ESE,120,0.0,0.0,85,0.00,,,0.00,weatherlink.com 1.10,2013-01-18 04:12:00,
2013-01-17 22:27:00,-7.3,-11.0,30.39,ESE,120,0.0,0.0,84,0.00,,,0.00,weatherlink.com 1.10,2013-01-18 04:27:00,
2013-01-17 22:42:00,-7.4,-11.0,30.39,ESE,120,0.0,0.0,84,0.00,,,0.00,weatherlink.com 1.10,2013-01-18 04:42:00,
2013-01-17 22:57:00,-7.3,-11.0,30.39,ESE,119,0.0,0.0,85,0.00,,,0.00,weatherlink.com 1.10,2013-01-18 04:57:00,
2013-01-17 23:28:00,-5.5,-9.0,30.39,ESE,118,0.0,0.0,86,0.00,,,0.00,weatherlink.com 1.10,2013-01-18 05:28:00,
2013-01-17 23:42:00,-4.2,-7.0,30.38,ESE,118,0.0,0.0,86,0.00,,,0.00,weatherlink.com 1.10,2013-01-18 05:42:00,
2013-01-17 23:57:00,-3.6,-7.0,30.37,ESE,119,0.0,1.0,85,0.00,,,0.00,weatherlink.com 1.10,2013-01-18 05:57:00,